Location: Erp
(42.9417°N, 1.2009°E)
Time: 14:35:46
(UTC+00:00)

SMAP - Pass Details

Date: 12 January 2026
Orbit: 682 x 683 km, 98.1° (Epoch: 18 February)

Event Time Altitude Azimuth Distance (km) Brightness Sun altitude
Rises 17:31:30 0° 173° (S) 3,031 6.6 -8.9°
Reaches altitude 10° 17:33:44 10° 176° (S) 2,120 5.8 -9.3°
Maximum altitude 17:38:21 65° 259° (WSW) 754 3.6 -10.1°
Drops below altitude 10° 17:43:00 10° 341° (NNW) 2,137 5.6 -10.9°
Sets 17:45:16 0° 344° (NNW) 3,057 6.4 -11.3°
